Location: Newark
(46.1292°N, 1.0086°W)
Time: 21:15:12
(UTC+00:00)

Vanguard 3 - Pass Details

Date: 24 November 2019
Orbit: 508 x 3263 km, 33.3° (Epoch: 07 December)

Event Time Altitude Azimuth Distance (km) Brightness Sun altitude
Rises 10:29:41 0° 203° (SSW) 5,864 12.2 20.9°
Reaches altitude 10° 10:34:00 10° 192° (SSW) 5,226 12.4 21.1°
Maximum altitude 10:46:54 29° 141° (SE) 4,590 12.5 21.8°
Drops below altitude 10° 11:01:58 10° 92° (E) 6,180 11.9 22.4°
Sets 11:07:36 0° 82° (E) 7,079 12.0 22.6°
